Home > Weather > Koror > Past weeks

Flag for Palau Past Weather in Koror, Palau — Yesterday and Last 2 Weeks

Now
79 °F

Mostly cloudy.


Feels Like: 83 °F
Forecast: 79 / 85 °F
Wind: No wind

Location: Koror / Palau Island

Current Time: Jun 29, 2016 at 3:55:07 AM

Latest Report: Jun 29, 2016 at 2:50 AM


Visibility: 14 mi

Pressure: 29.85 "Hg

Humidity: 94%

Dew Point: 77 °F

Location of KororLocation

Past Weather in Koror — Graph

°F

Koror Temperature Yesterday

Maximum temperature yesterday: 86 °F (at 11:50 AM)
Minimum temperature yesterday: 77 °F (at 12:54 AM)
Average temperature yesterday: 81 °F

High & Low Weather Summary for the Past Weeks

 TemperatureHumidityPressure
High90 °F (Jun 14, 11:50 AM)100% (Jun 15, 12:50 AM)29.89 "Hg (Jun 15, 12:50 AM)
Low75 °F (Jun 24, 4:50 AM)66% (Jun 16, 12:50 PM)29.69 "Hg (Jun 19, 2:50 PM)
Average81 °F89%29.79 "Hg
* Reported Jun 14 1:50 AM — Jun 29 1:50 AM, Koror, Weather by CustomWeather, © 2016

Note: Actual official high and low records may vary slightly from our data, if they occured in-between our weather recording intervals... More about our weather records

Advertising

Koror Weather History for the Previous 24 Hours

Scroll right to see more
 ConditionsComfort  
Time TempWeatherWind HumidityBarometerVisibility
1:50 AM
Wed, Jun 29
77 °FMostly cloudy.No wind100%29.86 "Hg14 mi
12:50 AM79 °FSprinkles. Mostly cloudy.No wind94%29.87 "Hg12 mi
11:50 PM
Tue, Jun 28
81 °FPartly cloudy.6 mph89%29.87 "Hg14 mi
10:50 PM81 °FPartly cloudy.7 mph89%29.89 "Hg14 mi
9:50 PM81 °FPartly cloudy.3 mph84%29.87 "Hg14 mi
8:50 PM81 °FPartly cloudy.3 mph84%29.86 "Hg14 mi
7:50 PM79 °FPartly cloudy.3 mph89%29.85 "Hg14 mi
6:50 PM81 °FPartly cloudy.No wind84%29.83 "Hg14 mi
5:50 PM81 °FScattered showers. Broken clouds.3 mph84%29.82 "Hg14 mi
4:50 PM82 °FScattered showers. Partly sunny.5 mph79%29.81 "Hg14 mi
3:50 PM86 °FPartly sunny.7 mph70%29.81 "Hg15 mi
2:50 PM86 °FPartly sunny.8 mph75%29.80 "Hg15 mi
1:50 PM86 °FScattered showers. Partly sunny.8 mph75%29.82 "Hg13 mi
12:50 PM82 °FSprinkles. Mostly cloudy.7 mph84%29.85 "Hg10 mi
11:50 AM86 °FPartly sunny.5 mph75%29.85 "Hg15 mi
10:50 AM84 °FBroken clouds.6 mph79%29.85 "Hg15 mi
9:50 AM82 °FPartly sunny.5 mph89%29.86 "Hg14 mi
8:50 AM79 °FPartly sunny.No wind94%29.87 "Hg14 mi
7:50 AM79 °FSprinkles. Cloudy.No wind94%29.86 "Hg14 mi
6:50 AM77 °FSprinkles. Mostly cloudy.7 mph94%29.83 "Hg13 mi
5:50 AM77 °FMostly cloudy.3 mph100%29.84 "Hg12 mi
4:50 AM77 °FSprinkles. Mostly cloudy.3 mph94%29.84 "Hg12 mi
3:54 AM77 °FMostly cloudy.No wind100%29.83 "Hg14 mi
Weather by CustomWeather, © 2016

See weather overviewHow to use our weather pages